Tracking 30923 objects as of 30-Jun-2025
HD Live streaming from Space Station
objects crossing your sky now

DIAPASON (D1-A)

Track DIAPASON (D1-A) now!
10-day predictions
DIAPASON (D1-A) is classified as:


NORAD ID: 2016
Int'l Code: 1966-013A
Perigee: 503.6 km
Apogee: 2,312.8 km
Inclination: 34.1 °
Period: 113.8 minutes
Semi major axis: 7779 km
RCS: 1.2804 m2 (large)
Launch date: February 17, 1966
Source: France (FR)
Launch site: HAMMA GUIRA SPACE TRACK RANGE (HGSTR)
Your satellite tracking list
Your tracking list is empty




NASA's NSSDC Master Catalog

Two Line Element Set (TLE):
1 02016U 66013A   25180.98036375  .00000390  00000-0  11529-3 0  9995
2 02016  34.0922  20.9611 1162833   4.8633 356.2255 12.65313071695791
Source of the keplerian elements: AFSPC